KD9IXX-13 Weather Reports


Display with metric or nautical units.
time (UTC)temp
F
wind
direction
speed
MPH
gust
MPH
rain 1hr
in
rain 24hr
in
rain mn
in
humidity
%
barometer
mb
20260904131001 80 271 0.0 0.0 0.00 0.00 0.00 86 1016.0
20260904130502 80 288 0.0 0.0 0.00 0.00 0.00 87 1016.1
20260904125502 78 283 0.0 0.0 0.00 0.00 0.00 89 1015.8
20260904122502 75 274 0.0 0.0 0.00 0.00 0.00 94 1015.5
20260904122001 75 276 0.0 0.0 0.00 0.00 0.00 94 1015.1
20260904121002 74 277 0.0 0.0 0.00 0.00 0.00 95 1015.3
20260904120502 74 276 0.0 0.0 0.00 0.00 0.00 96 1015.1
20260904115002 74 278 0.0 0.0 0.00 0.00 0.00 95 1015.0
20260904114002 74 246 0.0 0.0 0.00 0.00 0.00 94 1014.8
20260904113501 74 279 0.0 0.0 0.00 0.00 0.00 95 1014.8
20260904113002 74 277 0.0 0.0 0.00 0.00 0.00 95 1014.6
20260904111501 74 207 1.0 2.0 0.00 0.00 0.00 95 1014.4
20260904111004 74 257 1.0 3.0 0.00 0.00 0.00 95 1014.6
20260904110002 74 283 0.0 2.0 0.00 0.00 0.00 95 1014.7
20260904104002 75 264 1.0 6.0 0.00 0.00 0.00 95 1014.5
20260904103002 74 271 0.0 0.0 0.00 0.00 0.00 96 1014.6
20260904102501 75 243 1.0 3.0 0.00 0.00 0.00 96 1014.6
20260904094502 75 259 1.0 3.0 0.00 0.00 0.00 96 1015.1
20260904093501 75 231 0.0 2.0 0.00 0.00 0.00 95 1015.1
20260904092502 76 263 0.0 0.0 0.00 0.00 0.00 94 1015.3
20260904091002 76 275 0.0 0.0 0.00 0.00 0.00 94 1015.2
20260904090501 76 274 0.0 0.0 0.00 0.00 0.00 93 1015.3
20260904090002 76 277 0.0 0.0 0.00 0.00 0.00 93 1015.4
20260904085002 76 280 0.0 0.0 0.00 0.00 0.00 93 1015.5
20260904083505 77 280 0.0 0.0 0.00 0.00 0.00 92 1015.3
20260904083001 77 269 0.0 0.0 0.00 0.00 0.00 92 1015.2
20260904081501 77 278 0.0 0.0 0.00 0.00 0.00 93 1014.7
20260904081002 76 277 0.0 3.0 0.00 0.00 0.00 94 1014.5
20260904080002 77 258 0.0 4.0 0.00 0.00 0.00 94 1014.6
20260904075002 77 260 0.0 5.0 0.00 0.00 0.00 95 1014.8
20260904074501 76 175 3.0 5.0 0.00 0.00 0.00 95 1014.5
20260904074002 76 212 3.0 4.0 0.00 0.00 0.00 96 1014.6
20260904070002 77 191 0.0 0.0 0.00 0.00 0.00 96 1014.9
20260904065502 77 247 0.0 3.0 0.00 0.00 0.00 96 1015.1
20260904063502 78 225 0.0 2.0 0.00 0.00 0.00 95 1015.4
20260904061002 78 269 0.0 0.0 0.00 0.00 0.00 95 1015.5
20260904060502 78 215 0.0 0.0 0.00 0.00 0.00 95 1015.4
20260904060001 78 206 1.0 3.0 0.00 0.00 0.00 94 1015.7
20260904055502 78 263 0.0 0.0 0.00 0.00 0.00 94 1015.6
20260904054502 78 272 0.0 0.0 0.00 0.00 0.00 94 1015.7
20260904054002 78 270 0.0 0.0 0.00 0.00 0.00 94 1015.7
20260904053002 78 244 0.0 0.0 0.00 0.00 0.00 94 1015.7
20260904052501 78 271 0.0 0.0 0.00 0.00 0.00 94 1015.6
20260904051002 79 268 0.0 0.0 0.00 0.00 0.00 93 1015.5
20260904050502 79 243 0.0 0.0 0.00 0.00 0.00 92 1015.5
20260904050002 79 218 0.0 0.0 0.00 0.00 0.00 92 1015.6
20260904045002 80 210 0.0 0.0 0.00 0.00 0.00 91 1015.5
20260904044001 80 222 0.0 0.0 0.00 0.00 0.00 90 1015.4
20260904041501 80 244 0.0 0.0 0.00 0.00 0.00 90 1015.7
20260904040002 80 277 0.0 0.0 0.00 0.00 0.00 89 1015.7
20260904035501 80 276 0.0 0.0 0.00 0.00 0.00 89 1015.5
20260904035002 80 277 0.0 0.0 0.00 0.00 0.00 89 1015.6
20260904034002 81 269 0.0 2.0 0.00 0.00 0.00 88 1015.6
20260904033501 81 257 0.0 0.0 0.00 0.00 0.00 88 1015.7
20260904033002 81 271 0.0 0.0 0.00 0.00 0.00 88 1015.4
20260904032502 81 270 0.0 0.0 0.00 0.00 0.00 87 1015.7
20260904032001 81 277 0.0 0.0 0.00 0.00 0.00 87 1015.7
20260904031002 81 271 0.0 0.0 0.00 0.00 0.00 86 1015.9
20260904030501 82 270 0.0 0.0 0.00 0.00 0.00 86 1015.8
20260904030002 82 243 0.0 2.0 0.00 0.00 0.00 86 1015.9
20260904025001 82 272 0.0 2.0 0.00 0.00 0.00 87 1015.6
20260904024002 82 280 0.0 0.0 0.00 0.00 0.00 88 1015.7
20260904022502 81 275 0.0 0.0 0.00 0.00 0.00 90 1015.4
20260904022002 82 286 0.0 0.0 0.00 0.00 0.00 90 1015.5
20260904021501 82 284 0.0 0.0 0.00 0.00 0.00 90 1015.4
20260904020002 82 288 0.0 0.0 0.00 0.00 0.00 89 1015.3
20260904015002 83 251 0.0 0.0 0.00 0.00 0.00 88 1015.2
20260904013002 83 277 0.0 2.0 0.00 0.00 0.00 88 1014.7
20260904012002 83 338 2.0 4.0 0.00 0.00 0.00 88 1014.8
20260904011501 83 267 2.0 7.0 0.00 0.00 0.00 88 1014.7
20260904010502 83 313 0.0 2.0 0.00 0.00 0.00 89 1014.4
20260904010003 83 269 0.0 0.0 0.00 0.00 0.00 90 1014.2
20260904003502 84 290 1.0 2.0 0.00 0.00 0.00 89 1014.2
20260904002502 85 297 0.0 0.0 0.00 0.00 0.00 87 1014.4
20260904001502 86 276 0.0 0.0 0.00 0.00 0.00 85 1014.2
20260903233002 88 276 0.0 0.0 0.00 0.00 0.00 80 1014.5
20260903232503 89 273 0.0 2.0 0.00 0.00 0.00 79 1014.4
20260903232001 89 246 0.0 4.0 0.00 0.00 0.00 78 1014.6
20260903231502 90 240 0.0 0.0 0.00 0.00 0.00 78 1014.3
20260903231002 89 240 0.0 0.0 0.00 0.00 0.00 77 1014.5
20260903230502 90 270 1.0 4.0 0.00 0.00 0.00 78 1014.6
20260903230002 89 277 0.0 0.0 0.00 0.00 0.00 79 1014.7
20260903224502 88 259 0.0 2.0 0.00 0.00 0.00 79 1014.9
20260903224001 89 278 1.0 4.0 0.00 0.00 0.00 78 1014.8
20260903223002 89 274 0.0 2.0 0.00 0.00 0.00 76 1014.9
20260903221002 89 225 0.0 0.0 0.00 0.00 0.00 76 1014.8
20260903220002 90 279 0.0 4.0 0.00 0.00 0.00 73 1014.8
20260903214502 91 284 0.0 3.0 0.00 0.00 0.00 71 1014.6
20260903212502 92 220 0.0 2.0 0.00 0.00 0.00 71 1014.8
20260903210002 92 281 2.0 5.0 0.00 0.00 0.00 70 1014.7
20260903204502 92 164 3.0 4.0 0.00 0.00 0.00 69 1015.0
20260903204002 92 259 2.0 5.0 0.00 0.00 0.00 70 1015.1
20260903202502 91 310 1.0 6.0 0.00 0.00 0.00 68 1015.0
20260903202002 91 34 3.0 4.0 0.00 0.00 0.00 69 1015.1
20260903201501 92 286 3.0 6.0 0.00 0.00 0.00 68 1015.2
20260903195502 92 261 2.0 6.0 0.00 0.00 0.00 64 1015.4
20260903194502 93 242 0.0 0.0 0.00 0.00 0.00 64 1015.5
20260903194002 93 292 0.0 0.0 0.00 0.00 0.00 66 1015.4
20260903193001 92 307 0.0 2.0 0.00 0.00 0.00 67 1015.5
20260903192002 92 306 2.0 4.0 0.00 0.00 0.00 67 1015.8
20260903190502 91 287 1.0 3.0 0.00 0.00 0.00 68 1016.0
20260903184502 92 338 0.0 3.0 0.00 0.00 0.00 68 1016.0
20260903183501 92 301 2.0 5.0 0.00 0.00 0.00 68 1016.0
20260903183002 91 315 2.0 7.0 0.00 0.00 0.00 68 1016.0
20260903181503 91 352 4.0 6.0 0.00 0.00 0.00 69 1016.4
20260903180502 91 77 2.0 6.0 0.00 0.00 0.00 69 1016.3
20260903180002 91 15 1.0 10.0 0.00 0.00 0.00 71 1016.4
20260903174502 91 293 0.0 4.0 0.00 0.00 0.00 71 1016.2
20260903173501 90 270 5.0 9.0 0.00 0.00 0.00 69 1016.3
20260903170002 91 325 3.0 6.0 0.00 0.00 0.00 72 1016.3
20260903165502 91 258 4.0 7.0 0.00 0.00 0.00 71 1016.5
20260903164002 90 292 4.0 7.0 0.00 0.00 0.00 70 1016.0
20260903162002 91 237 3.0 5.0 0.00 0.00 0.00 70 1016.1
20260903161502 90 279 2.0 5.0 0.00 0.00 0.00 71 1016.0
20260903160502 89 283 0.0 5.0 0.00 0.00 0.00 71 1015.8
20260903154002 88 256 2.0 3.0 0.00 0.00 0.00 73 1016.0
20260903153501 88 269 1.0 5.0 0.00 0.00 0.00 73 1016.1
20260903153002 88 290 1.0 5.0 0.00 0.00 0.00 73 1016.0
20260903152002 88 269 2.0 4.0 0.00 0.00 0.00 75 1016.1
20260903151502 88 280 1.0 4.0 0.00 0.00 0.00 74 1016.1
20260903151002 88 256 3.0 3.0 0.00 0.00 0.00 75 1016.1
20260903150502 88 259 2.0 4.0 0.00 0.00 0.00 76 1016.1
20260903145002 86 267 2.0 6.0 0.00 0.00 0.00 77 1016.2
20260903143502 85 286 3.0 4.0 0.00 0.00 0.00 78 1016.1
20260903143002 85 218 1.0 5.0 0.00 0.00 0.00 78 1015.9
20260903142502 85 266 1.0 4.0 0.00 0.00 0.00 78 1015.9
20260903142002 85 283 0.0 0.0 0.00 0.00 0.00 80 1015.8
20260903141002 85 303 3.0 5.0 0.00 0.00 0.00 78 1015.9
20260903140502 84 202 3.0 6.0 0.00 0.00 0.00 79 1016.0
20260903135502 84 284 0.0 3.0 0.00 0.00 0.00 80 1015.9
20260903135002 83 249 0.0 0.0 0.00 0.00 0.00 81 1015.9
20260903134502 83 255 0.0 2.0 0.00 0.00 0.00 81 1016.1
20260903132502 80 221 1.0 4.0 0.00 0.00 0.00 86 1015.8
20260903131502 79 247 4.0 7.0 0.00 0.00 0.00 87 1016.1